Weather History for KSNY - December, 2011

Change the Weather History Date:

Wednesday, December 21, 2011

  Actual Average Record
Temperature  
Mean Temperature 34 °F 28 °F  
Max Temperature 44 °F 41 °F 68 °F (1981)
Min Temperature 23 °F 15 °F -23 °F (1998)
Degree Days  
Heating Degree Days 31 37  
Month to date heating degree days 794 758  
Since 1 July heating degree days 2138 2180  
Cooling Degree Days 0 0  
Month to date cooling degree days 0 0  
Year to date cooling degree days 960 830  
Moisture  
Dew Point 25 °F    
Average Humidity 65    
Maximum Humidity 85    
Minimum Humidity 45    
Precipitation  
Precipitation T in 0.02 in 0.34 in (1968)
Month to date precipitation 0.01 0.40  
Year to date precipitation 27.73 18.40  
Sea Level Pressure  
Sea Level Pressure 29.92 in    
Wind  
Wind Speed 13 mph (North)    
Max Wind Speed 23 mph    
Max Gust Speed 28 mph    
Visibility 9 miles    
Events Snow    
T = Trace of Precipitation, MM = Missing Value Source: NWS Daily Summary

Daily Weather History Graph

Daily Weather History Graph

Search for Another Location

Airport or City:

Trip Planner

Search our weather history database for the weather conditions in past years. The results will help you decide how hot, cold, wet, or windy it might be!

Date:

Astronomy

Dec. 21, 2011 Rise Set
Actual Time 7:13 AM MST 4:26 PM MST
Civil Twilight 6:42 AM MST 4:57 PM MST
Nautical Twilight 6:07 AM MST 5:32 PM MST
Astronomical Twilight 5:34 AM MST 6:05 PM MST
Moon 3:48 AM MST (12/21) 1:48 PM MST (12/21)
Length of Visible Light 10h 15m
Length of Day
9h 12m
Waning Crescent, 12% of the Moon is Illuminated
Dec 21
Waning Crescent
Dec 24
New
Dec 31
First Quarter
Jan 9
Full
Jan 16
Last Quarter

Hourly Weather History & Observations

Time (MST) Temp. Windchill Dew Point Humidity Pressure Visibility Wind Dir Wind Speed Gust Speed Precip Events Conditions
12:53 AM 28.9 °F 18.2 °F 18.0 °F 64% 29.77 in 10.0 mi WNW 13.8 mph - N/A   Clear
1:53 AM 26.1 °F 16.8 °F 17.1 °F 69% 29.78 in 10.0 mi West 9.2 mph - N/A   Clear
2:53 AM 27.0 °F 18.0 °F 18.0 °F 69% 29.77 in 10.0 mi NW 9.2 mph - N/A   Clear
3:53 AM 25.0 °F 15.5 °F 17.1 °F 72% 29.78 in 10.0 mi WNW 9.2 mph - N/A   Clear
4:53 AM 26.1 °F 15.0 °F 17.1 °F 69% 29.82 in 10.0 mi NW 12.7 mph - N/A   Clear
5:53 AM 30.0 °F 19.1 °F 19.0 °F 64% 29.83 in 10.0 mi NW 15.0 mph - N/A   Clear
6:53 AM 30.9 °F 20.7 °F 18.0 °F 59% 29.83 in 10.0 mi NW 13.8 mph - N/A   Clear
7:53 AM 33.1 °F 23.4 °F 19.0 °F 56% 29.83 in 10.0 mi NW 13.8 mph - N/A   Overcast
8:53 AM 37.0 °F 28.1 °F 21.0 °F 52% 29.83 in 10.0 mi NW 15.0 mph - N/A   Overcast
9:53 AM 41.0 °F 31.9 °F 21.0 °F 45% 29.84 in 10.0 mi North 19.6 mph - N/A   Mostly Cloudy
12:53 PM 39.0 °F 31.0 °F 30.0 °F 70% 29.82 in 10.0 mi North 13.8 mph - N/A   Mostly Cloudy
1:53 PM 39.0 °F 31.8 °F 30.0 °F 70% 29.83 in 10.0 mi North 11.5 mph - N/A   Overcast
2:25 PM 37.4 °F 28.5 °F 30.2 °F 75% 29.78 in 10.0 mi NNE 15.0 mph - N/A   Mostly Cloudy
2:53 PM 37.0 °F 28.5 °F 28.9 °F 73% 29.86 in 10.0 mi NE 13.8 mph - N/A   Overcast
3:53 PM 36.0 °F 27.5 °F 28.0 °F 73% 29.89 in 10.0 mi NNE 12.7 mph - N/A   Mostly Cloudy
4:53 PM 34.0 °F 25.5 °F 28.0 °F 79% 29.94 in 10.0 mi NNE 11.5 mph - N/A   Overcast
5:16 PM 33.8 °F 24.8 °F 28.4 °F 81% 29.88 in 10.0 mi NNE 12.7 mph - N/A   Overcast
5:34 PM 33.8 °F 25.3 °F 28.4 °F 81% 29.89 in 10.0 mi NNE 11.5 mph - N/A   Overcast
5:53 PM 33.1 °F 24.9 °F 28.9 °F 85% 29.97 in 10.0 mi NNE 10.4 mph - N/A   Overcast
6:53 PM 33.1 °F 24.9 °F 28.0 °F 82% 30.01 in 10.0 mi NNE 10.4 mph - N/A   Overcast
7:53 PM 32.0 °F 20.1 °F 28.0 °F 85% 30.04 in 9.0 mi NNE 19.6 mph - 0.00 in   Overcast
8:53 PM 30.9 °F 20.7 °F 27.0 °F 85% 30.06 in 7.0 mi NE 13.8 mph - 0.00 in Snow Light Snow
9:12 PM 30.2 °F 18.9 °F 26.6 °F 86% 30.00 in 8.0 mi NE 16.1 mph - 0.00 in   Overcast
9:19 PM 30.2 °F 20.2 °F 26.6 °F 86% 30.01 in 3.0 mi NNE 12.7 mph - 0.00 in Snow Light Snow
9:53 PM 30.0 °F 20.5 °F 26.1 °F 85% 30.09 in 9.0 mi NE 11.5 mph - 0.00 in   Overcast
10:30 PM 30.2 °F 20.2 °F 26.6 °F 86% 30.07 in 2.0 mi NNE 12.7 mph - 0.00 in Snow Light Snow
10:53 PM 30.0 °F 18.3 °F 27.0 °F 88% 30.12 in 2.0 mi NNE 17.3 mph - 0.00 in Snow Light Snow
11:07 PM 30.2 °F 18.5 °F 26.6 °F 86% 30.07 in 3.0 mi NNE 17.3 mph 24.2 mph 0.00 in Snow Light Snow
11:38 PM 28.4 °F 16.6 °F 24.8 °F 86% 30.09 in 8.0 mi NE 16.1 mph 25.3 mph 0.00 in Snow Light Snow
11:53 PM 28.9 °F 17.3 °F 24.1 °F 82% 30.15 in 6.0 mi NE 16.1 mph 21.9 mph 0.00 in Snow Light Snow